GFSMW_2pvu_pres_120.txt.gz
Presure
154 161 176 157 169 175 144 179 148 170 181 153 155 141 125 127 139 167 164 159 159 181 268 264 257 178 244 233 149 147 148 120 144 128 133 118 146 151 128 144 129 126 143
216 219 218 212 227 217 218 216 219 221 223 221 221 228 181 207 179 163 217 168 171 171 170 170 170 169 183 179 182 149 145 134 134 136 119 141 131 122 137 150 126 133 133
228 216 218 219 219 217 227 230 228 229 228 227 231 231 223 152 216 147 249 143 278 148 236 147 153 156 163 323 168 293 273 174 137 165 181 144 130 197 131 155 140 131 139
214 221 232 237 240 245 248 211 221 266 281 288 289 277 274 311 308 288 299 297 286 304 303 327 376 408 398 416 423 191 428 376 170 344 141 133 170 143 124 126 132 127 135
234 240 241 277 283 282 279 279 278 276 268 275 296 295 297 287 291 293 285 282 292 291 291 294 303 318 336 345 388 438 136 406 384 128 137 184 122 308 134 141 163 138 139
204 223 237 250 261 264 264 261 254 272 283 291 285 284 268 279 262 258 268 266 267 254 270 278 283 292 292 305 318 336 519 379 365 223 202 134 173 368 340 193 278 129 130
243 245 240 245 245 246 255 302 287 280 270 276 271 270 263 259 258 261 248 219 250 258 263 263 266 272 278 282 252 227 233 279 200 329 346 349 246 338 257 289 283 134 320
225 241 241 247 257 302 282 280 266 261 244 246 249 248 255 250 258 234 277 312 302 302 301 298 300 309 303 290 276 275 280 282 283 284 289 299 307 317 322 323 143 311 135
239 263 311 289 270 268 266 260 248 245 232 232 237 106 282 304 252 291 268 260 265 263 265 261 256 285 277 283 292 299 294 283 270 268 274 277 278 279 284 289 292 298 304
293 270 268 256 252 240 235 234 225 235 218 250 287 250 268 264 261 255 255 255 265 265 251 248 252 261 255 255 257 253 256 265 282 291 285 276 267 265 268 272 274 276 280
252 239 232 243 247 258 252 251 236 271 289 271 259 255 240 252 246 248 250 239 246 261 260 247 255 238 264 265 267 264 269 273 273 267 278 254 273 289 292 289 239 135 135
291 280 276 272 268 264 264 254 253 272 247 249 250 239 235 244 241 241 251 238 214 214 242 263 264 263 255 246 247 260 259 228 241 155 248 260 265 268 271 224 168 168 167
242 256 244 264 231 234 236 233 227 237 239 237 220 232 225 227 229 217 248 247 242 229 234 237 238 233 237 241 266 274 273 249 229 149 145 142 138 135 136 137 142 141 141
245 230 222 232 229 222 216 215 201 208 204 226 184 179 220 223 226 230 226 226 231 230 228 225 226 238 227 229 246 251 253 273 274 277 259 281 295 290 287 276 293 285 266
217 196 223 208 220 157 208 190 217 216 210 212 216 218 225 217 208 209 214 205 216 223 222 227 234 219 229 191 232 226 241 247 241 266 283 268 296 301 300 321 346 280 276
213 210 199 207 208 196 191 201 206 212 215 214 220 216 212 220 218 234 226 217 217 222 221 224 226 216 225 245 247 251 254 242 262 252 288 284 289 307 310 346 357 357 343
201 204 205 193 204 199 203 204 203 203 213 217 208 209 205 205 213 215 205 206 211 210 210 213 216 218 222 222 224 228 233 251 251 275 280 295 305 289 414 442 393 365 352
199 201 212 200 208 217 201 211 210 209 201 211 211 208 216 214 214 219 218 222 233 212 233 234 229 241 249 224 227 228 240 256 248 275 280 308 305 428 356 336 322 315 314
161 198 198 197 185 194 196 195 192 204 203 202 212 218 215 194 204 194 221 229 233 245 240 242 223 229 243 245 250 245 246 261 257 265 295 323 339 340 327 318 308 306 308
191 201 192 202 201 206 213 209 209 218 222 217 194 205 212 220 221 217 204 206 210 228 236 245 240 245 229 238 247 244 269 276 259 276 301 281 330 322 312 305 303 350 376
177 161 189 189 185 188 184 193 199 202 203 179 189 219 218 227 215 212 218 210 223 241 231 245 254 247 223 237 240 241 274 279 261 280 293 293 323 312 302 303 378 368 365
200 202 210 205 211 201 208 208 204 207 211 216 205 203 224 229 210 214 231 232 237 237 235 228 245 234 226 241 244 256 277 269 280 288 287 292 311 300 300 367 358 354 352
181 210 187 212 200 206 186 191 213 193 199 198 197 221 218 218 234 192 217 215 222 227 248 263 260 256 249 240 243 265 276 267 278 295 283 311 305 296 365 353 347 340 368
180 198 183 211 182 190 208 221 185 182 187 179 182 207 187 228 219 216 217 223 247 227 248 261 238 247 257 252 251 272 284 286 295 339 279 311 297 321 351 342 332 350 364
200 197 205 191 200 194 210 214 195 191 191 231 211 227 173 236 245 243 239 227 234 226 238 257 242 246 260 245 263 284 277 288 304 280 266 297 294 348 339 329 327 353 355
199 205 180 179 213 214 215 181 207 221 206 182 217 166 234 232 220 229 236 242 251 250 244 263 225 248 247 257 275 267 282 287 333 305 304 291 331 342 330 319 345 342 349

GFSMW_2pvu_pres_123.txt.gz
Presure
170 163 163 213 165 221 161 160 153 145 227 230 224 225 228 232 235 242 236 236 235 183 239 184 169 172 256 170 171 505 179 179 177 180 251 184 144 149 142 118 146 124 124
201 207 210 210 216 218 220 220 229 234 231 230 232 237 235 227 264 220 226 236 185 228 192 186 142 142 150 152 153 231 162 166 171 169 176 168 180 141 156 132 140 141 124
216 208 206 208 215 212 211 211 230 249 256 281 293 294 292 282 278 278 295 301 291 304 295 298 295 299 300 277 321 233 358 154 315 303 302 216 304 166 138 198 156 144 166
205 198 204 215 219 237 237 241 228 223 236 255 270 266 265 261 270 291 282 277 283 293 287 278 279 281 283 290 294 307 313 333 487 498 415 410 407 385 414 292 272 273 168
215 216 225 242 241 221 212 211 228 247 241 246 252 293 292 289 290 280 280 273 273 273 266 266 239 260 312 305 281 288 295 307 321 384 388 394 390 378 210 156 309 135 125
246 246 236 196 193 208 216 224 234 252 259 296 294 282 277 275 269 262 258 240 244 238 308 299 296 289 282 286 299 306 307 293 296 306 318 347 356 354 243 339 300 306 259
192 193 202 210 212 216 223 239 295 300 296 277 266 257 253 247 239 235 250 318 284 255 263 267 266 266 269 283 261 263 273 289 302 291 289 293 300 306 296 298 190 308 299
203 209 210 214 222 256 312 299 287 274 261 251 234 239 218 294 316 272 266 133 260 269 250 253 265 271 272 263 268 275 274 276 256 260 275 300 289 282 288 289 290 301 291
203 211 219 314 296 278 259 248 230 230 229 249 247 293 268 255 241 246 241 260 264 270 254 241 247 250 249 245 269 270 255 253 261 265 276 286 287 294 303 292 279 279 280
261 293 270 256 250 255 262 268 265 278 297 279 254 249 258 258 240 233 237 242 234 243 238 241 240 243 242 241 242 240 244 250 249 271 286 273 266 274 263 265 275 289 285
248 242 259 265 280 263 242 250 257 248 245 244 239 238 231 229 222 225 227 233 233 236 235 229 227 228 227 229 230 232 238 237 233 244 242 253 251 267 214 277 278 283 280
268 267 270 255 226 234 232 216 223 225 226 222 217 216 218 225 223 221 221 219 222 223 218 220 221 227 227 227 228 230 227 232 238 254 243 243 263 250 239 254 274 287 294
246 224 242 229 224 224 216 213 216 218 213 202 210 160 214 207 215 217 222 218 218 217 226 221 228 228 239 238 227 225 227 235 237 231 234 237 246 250 265 252 258 269 262
225 220 215 212 214 206 198 204 204 160 213 216 213 214 207 203 210 227 206 207 209 214 233 225 232 224 219 230 236 240 242 240 253 250 244 228 242 267 274 238 262 284 294
219 220 200 200 202 206 206 194 186 205 212 208 215 217 212 217 218 218 218 219 222 211 223 224 220 226 230 233 245 252 225 244 235 247 248 253 257 254 278 284 280 289 306
213 208 208 198 196 205 210 211 211 196 193 195 198 195 192 193 222 205 202 218 219 219 220 222 214 195 220 226 239 129 248 130 253 248 241 248 246 251 288 296 292 298 302
199 193 193 201 194 198 192 197 194 200 206 209 213 211 208 210 202 220 226 229 233 230 217 217 231 233 225 242 239 245 237 241 246 257 254 255 255 269 265 299 299 345 353
197 191 198 196 177 201 198 207 204 196 198 197 196 193 204 203 201 188 211 196 230 172 228 245 238 234 227 240 229 254 261 259 258 242 263 258 262 280 294 297 315 352 307
188 146 147 209 187 175 197 192 190 193 204 199 205 220 219 215 200 206 197 192 201 223 234 206 239 238 210 231 246 242 246 261 258 255 263 266 272 290 291 302 355 323 292
180 181 188 197 195 192 192 212 200 201 203 199 194 218 202 192 202 200 223 224 232 221 222 187 171 219 232 244 234 248 242 264 264 257 266 268 284 287 290 335 339 277 313
199 200 198 186 187 190 205 195 192 210 188 185 186 190 204 215 207 218 225 211 182 205 225 259 248 250 186 227 250 246 246 265 263 258 261 268 290 284 300 345 286 317 303
187 188 187 189 188 192 189 192 204 208 199 197 192 185 179 213 194 210 210 220 181 234 232 243 256 251 251 247 245 261 247 263 260 249 262 275 284 288 337 321 267 304 315
204 202 209 203 206 203 204 211 210 191 200 211 191 218 224 194 214 215 225 188 173 215 246 210 241 242 266 250 263 261 254 264 251 250 258 281 287 284 331 270 309 297 350
182 181 207 203 184 212 207 217 209 208 217 216 166 213 216 188 228 226 220 165 227 238 242 231 241 210 268 249 268 251 259 267 262 263 274 281 287 346 307 290 296 346 339
206 205 204 202 194 207 217 221 195 214 227 203 199 214 199 226 237 251 172 235 240 255 218 241 241 263 294 268 234 273 237 262 265 273 278 280 291 326 263 300 296 341 329
198 209 213 211 212 219 215 215 210 221 163 223 191 214 236 235 225 227 254 250 255 243 250 251 250 275 287 267 256 265 266 272 269 273 278 271 334 288 302 289 329 334 324

GFSMW_2pvu_pres_126.txt.gz
Presure
159 198 168 152 206 161 210 202 160 214 221 213 219 216 222 222 214 244 265 268 300 256 301 296 291 282 320 319 318 313 151 311 261 319 163 456 497 352 170 172 172 176 169
192 157 189 202 201 220 216 213 220 212 216 215 217 228 232 247 237 242 271 256 255 269 272 280 305 299 294 293 297 295 289 291 290 299 318 497 440 439 349 365 192 246 173
206 202 205 209 212 214 217 216 221 218 213 229 252 235 223 216 237 248 269 306 296 295 285 282 288 284 274 265 264 257 255 262 223 279 292 350 371 424 426 292 278 394 161
187 208 212 215 220 180 230 219 225 240 259 227 209 204 223 236 271 303 296 292 290 283 281 249 244 243 243 245 244 285 287 300 309 321 275 290 333 384 400 408 345 384 387
207 216 221 252 251 236 240 254 259 210 198 229 216 171 306 308 295 284 269 250 243 246 245 269 297 277 242 266 254 257 266 265 260 269 303 308 281 311 325 366 395 385 371
220 265 259 260 251 253 235 197 205 217 214 222 277 309 288 269 250 243 230 258 309 309 260 264 258 251 235 249 248 242 242 259 266 269 257 264 282 305 293 298 316 361 371
264 253 243 210 192 200 207 216 213 216 281 298 271 248 241 232 246 279 303 268 257 264 258 254 252 250 238 247 248 244 249 251 253 257 260 267 268 264 298 296 288 285 301
214 189 197 198 208 219 212 213 305 273 253 243 236 243 256 288 267 243 245 237 242 236 239 238 238 241 241 243 238 237 238 237 240 242 243 248 252 256 273 270 297 275 279
196 203 210 222 212 267 278 252 244 246 263 266 291 268 258 247 245 240 240 233 227 227 227 229 226 226 226 229 236 233 238 236 237 233 239 240 241 241 240 249 261 260 277
212 227 318 293 260 258 304 271 266 262 260 251 246 246 239 236 224 229 223 215 219 225 224 224 229 228 228 228 233 232 233 232 232 234 233 237 240 249 234 236 257 249 262
306 272 249 264 261 254 244 229 233 234 238 224 227 222 218 217 217 215 213 213 209 205 202 210 211 214 222 220 221 220 224 218 239 245 254 246 243 246 245 258 239 268 250
241 288 259 258 247 244 239 232 227 214 211 217 217 202 205 232 226 204 223 216 214 217 216 219 224 222 236 231 230 233 236 230 230 238 240 241 250 260 257 238 254 252 263
260 251 244 235 216 224 213 213 216 202 203 211 214 220 220 216 219 214 212 200 201 205 214 218 229 223 230 230 236 231 232 238 222 239 248 249 245 245 249 253 257 246 258
226 217 217 212 214 215 205 215 208 211 180 203 200 203 203 206 208 207 210 212 211 205 203 210 217 218 225 224 236 234 227 243 247 230 242 246 242 257 263 205 215 266 275
219 213 210 208 201 203 220 209 200 208 201 201 204 210 205 200 194 193 192 207 207 209 194 201 201 218 235 230 220 164 217 224 245 247 250 248 241 239 248 272 270 259 269
205 201 180 204 208 193 201 203 193 199 194 210 193 191 192 190 209 202 220 218 202 206 203 206 160 208 137 228 205 237 246 255 259 251 247 262 248 242 254 262 274 271 272
204 210 193 193 188 202 198 201 191 178 207 207 203 202 203 203 202 203 207 200 199 205 219 134 152 226 226 209 226 234 241 241 246 254 260 245 251 260 255 245 276 272 266
190 203 207 197 207 191 188 189 199 196 185 186 207 203 201 191 190 191 192 210 223 195 189 186 210 219 202 216 218 216 235 236 246 242 256 264 251 261 270 267 272 266 272
192 188 191 174 178 200 196 196 176 190 192 197 199 193 192 192 184 216 189 193 214 221 187 214 208 229 224 192 228 224 245 258 247 193 260 282 252 272 273 269 278 279 288
181 207 183 195 190 189 196 190 190 192 188 180 185 179 186 214 211 214 210 191 204 216 229 227 209 219 236 209 246 234 250 261 251 250 257 281 254 271 278 277 272 285 288
210 195 179 181 186 180 191 193 192 192 196 206 214 210 200 188 186 216 216 220 212 211 221 222 232 213 224 177 237 253 257 250 253 260 256 285 278 274 276 274 285 280 294
169 171 169 194 203 213 206 198 193 191 195 204 201 198 207 190 195 221 226 234 209 179 210 225 216 225 191 244 258 259 237 250 277 262 266 279 275 279 275 279 279 291 287
204 204 200 201 203 185 183 181 185 207 212 215 219 224 223 225 226 205 227 150 215 233 226 226 215 226 239 263 268 259 247 298 265 254 276 275 275 274 273 276 278 288 278
211 202 203 213 213 206 207 222 224 219 218 221 216 210 231 229 212 236 237 169 214 246 223 232 205 183 177 275 257 260 248 263 286 262 275 276 273 269 273 273 285 275 335
199 194 190 216 187 199 216 207 216 229 230 241 234 228 212 232 220 214 224 251 231 203 214 250 270 257 270 268 323 262 273 263 261 278 277 272 275 270 272 279 279 302 287
216 224 229 228 214 228 230 222 223 238 240 222 243 247 239 243 248 223 241 257 262 245 230 259 250 274 265 344 270 261 262 264 285 276 272 273 271 270 273 282 263 321 307

GFSMW_2pvu_pres_129.txt.gz
Presure
144 141 141 140 139 144 143 143 148 204 157 208 208 221 232 226 228 231 234 240 257 239 226 219 241 283 315 311 300 296 292 290 285 280 279 279 278 281 126 127 307 451 397
142 143 157 161 160 195 211 212 210 205 216 203 205 226 244 237 235 261 256 234 216 215 254 309 309 299 290 279 270 265 261 260 255 299 293 284 286 327 334 326 369 425 458
205 203 191 190 194 197 204 204 211 211 211 248 259 257 215 267 250 220 207 223 251 308 297 278 258 254 254 265 284 290 282 268 266 266 262 273 268 265 284 328 312 349 438
193 190 188 191 190 204 199 207 215 238 274 263 273 259 241 207 225 219 227 304 271 258 252 267 302 305 281 260 280 277 259 261 259 256 248 260 262 278 283 268 286 324 320
180 197 190 194 202 210 220 233 266 267 269 249 204 209 223 208 322 285 263 251 244 281 311 270 262 256 255 251 250 250 246 204 197 249 250 250 254 263 269 278 285 273 320
194 194 202 213 222 230 248 271 241 195 193 211 211 219 311 275 254 249 241 279 256 256 245 249 244 243 237 236 238 237 239 218 237 237 251 243 247 245 254 254 266 276 284
202 211 217 223 272 267 217 193 198 213 219 220 258 264 250 248 255 279 265 250 247 228 240 240 238 230 230 227 209 226 225 229 236 237 238 238 243 243 241 258 265 260 256
216 216 271 173 191 193 193 198 212 272 281 259 253 267 286 273 260 247 244 240 239 235 226 228 228 244 221 222 217 225 231 230 225 224 224 219 228 239 250 262 241 236 269
178 173 183 191 203 211 236 315 280 261 275 276 265 253 247 244 234 236 225 223 214 199 210 220 223 222 234 231 219 223 228 234 217 236 229 237 232 242 250 251 258 260 250
183 192 198 203 243 303 270 259 264 255 242 231 238 231 230 225 228 206 220 218 212 201 211 208 212 217 222 223 224 224 224 232 229 236 238 238 244 217 255 238 245 249 238
202 204 257 298 258 246 259 248 233 232 236 227 224 215 214 217 217 213 221 221 218 212 211 204 209 214 218 208 222 223 223 225 210 240 249 231 234 253 243 237 257 234 250
310 294 254 241 254 242 243 238 220 224 214 213 225 197 220 222 215 208 204 213 214 207 201 200 212 218 215 214 197 205 215 218 215 224 237 245 235 247 243 264 262 254 252
260 279 265 250 232 232 220 224 209 215 216 206 220 212 197 209 211 212 198 193 196 213 204 209 206 202 212 204 222 229 219 210 227 216 231 234 237 234 257 253 250 256 258
259 244 241 228 207 201 215 207 200 211 166 196 210 201 198 196 199 204 215 209 206 205 204 193 207 206 193 216 205 221 177 133 199 208 225 241 238 251 248 195 255 248 269
220 206 213 212 210 206 204 201 197 205 206 203 205 191 198 210 204 201 192 194 194 195 199 204 196 204 199 199 222 223 226 208 227 212 239 239 240 250 262 261 264 256 257
209 210 200 198 205 194 191 190 196 204 181 200 199 204 201 199 195 187 211 211 189 188 186 195 213 205 218 199 204 207 204 209 205 228 186 223 176 256 256 262 249 259 261
179 150 193 198 197 205 202 192 189 196 204 184 200 191 192 191 190 185 183 198 196 201 203 210 193 194 218 226 220 212 217 216 218 211 234 227 254 269 266 248 255 278 271
199 200 200 188 190 197 192 185 186 189 190 196 188 181 182 182 174 185 210 214 214 197 190 190 207 221 216 222 233 221 212 234 205 219 242 173 253 272 262 254 269 290 260
192 177 193 193 190 181 176 202 184 177 186 195 205 189 210 211 211 207 193 184 204 202 216 222 223 228 208 231 233 222 221 229 222 228 220 251 265 271 263 254 267 274 285
186 176 171 173 166 138 132 177 182 209 195 184 207 211 209 216 225 222 219 215 217 218 230 235 231 231 171 235 229 213 222 236 224 254 241 260 268 269 280 266 274 255 286
204 177 212 177 188 194 204 191 192 199 202 215 220 220 206 209 201 204 230 227 224 232 227 224 222 238 223 195 225 247 242 234 249 239 268 265 271 282 297 274 260 286 285
176 179 184 214 217 195 210 211 193 219 221 203 232 235 197 236 237 228 213 232 232 240 220 227 243 236 250 220 255 214 236 222 280 271 277 294 266 315 273 259 275 281 277
201 193 189 199 190 190 230 200 191 208 211 209 212 209 213 220 232 250 236 240 239 226 234 235 245 244 180 252 258 185 243 255 265 298 295 331 316 269 268 265 287 282 278
198 208 211 205 208 192 197 183 203 179 207 210 236 195 215 170 232 246 262 267 225 212 261 222 202 234 257 258 241 271 280 303 349 303 329 315 220 303 266 282 281 277 275
191 191 192 171 214 193 226 217 244 250 209 237 235 245 241 147 235 250 225 283 273 268 167 225 263 213 261 317 327 317 369 362 337 320 316 291 278 276 279 279 276 276 278
234 191 221 232 229 215 231 243 229 162 243 218 199 236 244 243 237 273 293 297 306 325 259 341 272 265 372 368 323 382 353 291 323 332 317 272 284 285 281 276 276 278 275

GFSMW_2pvu_pres_132.txt.gz
Presure
135 134 133 133 134 133 134 136 138 141 145 149 151 148 203 208 205 220 273 271 270 264 253 234 219 214 233 301 288 278 269 280 294 288 269 265 267 267 271 272 268 268 269
132 135 133 132 133 139 142 145 149 154 155 195 198 201 206 237 278 275 268 256 237 221 211 230 269 278 269 265 269 286 271 262 255 260 258 249 256 255 256 253 254 261 284
136 172 145 170 199 193 198 198 194 194 185 198 204 236 260 280 258 237 216 208 219 220 283 269 258 256 278 273 262 257 260 254 248 239 236 248 251 248 249 250 256 261 269
204 193 206 208 193 190 191 191 185 194 200 233 272 291 255 214 202 217 216 293 281 259 245 269 269 262 254 243 247 248 246 241 236 235 239 241 243 244 246 246 243 244 258
193 194 190 189 183 174 175 196 201 222 255 289 259 199 200 211 213 307 274 252 242 273 261 252 250 244 229 231 236 237 239 230 226 227 222 215 238 237 238 229 246 246 232
174 181 181 178 181 206 197 212 226 293 240 188 203 208 216 303 275 248 253 278 263 246 246 232 233 230 212 240 227 235 234 234 233 236 240 242 240 239 193 224 241 252 262
192 190 189 206 196 207 220 227 257 174 199 215 218 303 275 252 271 273 261 249 229 237 223 231 227 215 213 203 217 216 221 227 234 229 222 232 224 221 237 254 243 256 258
197 211 195 207 214 216 184 188 189 207 207 284 296 266 274 264 245 244 245 231 234 226 199 207 216 223 223 223 223 222 225 220 226 225 228 232 229 219 241 241 245 247 254
198 203 211 214 163 179 186 209 213 201 276 270 252 246 236 231 226 225 244 206 231 216 219 207 213 221 214 197 215 221 222 215 206 222 218 237 218 225 225 241 251 241 251
208 207 163 179 188 195 208 225 271 263 250 232 225 227 228 221 219 215 215 221 217 200 216 204 205 205 219 207 210 210 207 219 209 216 210 215 227 231 231 228 234 247 242
219 211 171 172 200 208 272 271 255 240 234 234 223 220 211 227 219 211 212 189 210 208 201 213 212 208 208 207 201 205 200 202 217 211 205 226 223 227 212 232 235 238 238
162 164 189 203 251 263 263 249 236 220 217 221 212 207 211 217 195 203 210 201 194 207 206 203 194 193 197 207 194 208 206 206 200 188 230 209 218 218 215 233 240 234 227
178 199 269 279 291 268 245 234 206 217 210 207 203 200 197 210 197 203 198 206 203 195 196 196 195 207 205 192 195 193 212 213 206 208 224 216 215 219 226 221 225 224 244
288 299 284 258 247 209 222 210 211 203 198 194 195 202 202 187 197 197 206 196 202 191 187 187 186 189 193 203 215 215 194 206 208 194 214 227 231 216 220 216 232 210 229
269 250 232 221 210 203 200 203 191 196 192 200 199 198 205 196 194 203 198 193 186 189 187 179 196 199 208 218 216 207 212 195 203 211 198 216 234 242 215 217 218 230 217
225 220 216 199 189 197 195 195 195 193 213 194 204 189 180 182 198 193 190 179 188 192 195 214 210 194 194 205 206 205 213 212 232 214 235 207 236 237 217 214 240 237 222
182 160 184 192 195 198 196 201 194 192 188 184 193 182 181 190 186 193 205 209 210 199 179 199 208 216 203 199 228 235 211 224 222 233 246 232 228 238 221 236 260 223 273
206 195 188 189 189 194 195 189 179 198 181 177 145 202 191 187 194 200 183 190 211 223 219 238 234 232 237 245 245 238 238 249 250 245 247 230 259 248 251 236 220 240 274
192 189 183 191 185 185 187 189 187 182 184 184 198 206 198 190 207 208 197 213 193 187 211 212 214 205 221 254 252 253 254 225 232 233 231 242 248 247 243 280 262 269 308
182 187 171 184 174 173 177 204 198 211 207 201 184 186 201 203 194 183 206 232 224 232 227 228 224 206 209 236 257 253 271 271 226 268 255 240 238 245 267 254 291 310 307
199 191 180 183 203 192 191 178 179 188 202 199 198 185 198 205 210 183 196 224 198 200 221 240 238 248 228 243 252 238 226 271 227 277 262 223 241 272 311 308 342 331 309
184 172 174 173 183 185 185 194 193 203 206 210 227 203 175 212 237 238 238 245 248 242 240 261 268 257 248 248 266 284 291 192 261 320 267 314 321 313 329 363 343 324 310
193 199 203 204 206 212 212 201 187 161 210 237 218 220 215 205 235 224 227 234 220 263 292 227 309 296 260 314 322 317 354 355 348 330 333 327 314 377 360 340 320 315 295
192 196 176 214 169 180 177 176 222 216 204 228 210 173 179 194 227 242 254 246 256 285 313 299 298 303 363 380 361 363 359 375 372 340 369 382 295 308 330 329 327 301 270
184 200 191 198 221 206 227 224 219 225 188 234 252 236 225 187 212 264 279 291 310 373 379 299 333 328 322 301 351 329 333 336 320 355 357 337 265 301 320 322 286 287 284
220 197 209 211 222 220 219 186 211 232 228 244 208 243 261 276 248 252 275 311 318 294 353 309 309 373 361 345 351 324 314 316 403 372 346 348 329 302 304 284 291 284 286

GFSMW_2pvu_pres_135.txt.gz
Presure
149 167 163 168 136 132 135 146 138 135 137 134 137 139 141 146 201 208 211 211 289 255 227 221 211 208 236 278 267 260 253 277 268 268 253 258 263 252 256 256 255 257 257
142 135 132 123 121 124 135 137 134 137 151 178 140 194 194 202 195 228 291 253 229 206 205 247 262 268 251 246 279 272 262 254 259 261 250 246 238 242 243 243 236 230 241
134 136 137 137 134 135 168 170 186 153 167 185 190 190 192 244 300 260 230 198 193 228 287 264 243 252 263 251 251 244 238 240 239 238 237 238 240 236 232 232 229 229 232
192 168 189 135 148 146 191 177 187 182 187 192 177 202 282 270 231 182 217 242 288 262 244 264 258 242 251 239 231 228 245 232 224 229 231 229 232 239 243 245 238 245 225
134 160 202 201 187 173 178 174 180 164 182 194 218 276 243 205 182 224 296 266 250 268 262 245 242 243 237 237 222 230 236 206 230 229 211 231 230 222 225 230 241 223 217
175 172 178 181 164 161 177 180 193 192 214 226 275 213 184 242 308 297 267 277 265 246 237 229 232 215 217 204 206 223 226 224 225 226 228 224 218 216 222 229 235 242 229
185 182 177 179 180 192 192 191 202 225 222 267 178 197 278 282 273 263 253 242 246 227 215 224 236 221 208 225 202 211 217 214 221 214 213 201 207 198 225 207 216 230 226
175 186 167 183 186 207 206 209 228 220 172 186 210 271 249 247 239 239 231 230 227 229 209 207 224 193 216 210 208 208 210 209 216 210 215 203 202 215 225 215 212 229 229
166 207 185 196 200 202 211 218 218 178 172 214 272 254 241 236 225 226 211 212 199 217 218 210 203 207 205 220 205 204 202 209 212 207 209 203 204 216 212 207 227 215 223
209 200 200 195 204 210 219 223 166 178 278 256 244 243 233 222 216 206 222 217 210 201 205 206 208 203 212 207 206 202 202 202 190 194 199 200 216 219 214 195 220 217 211
192 193 196 208 207 176 173 162 198 258 257 241 238 223 222 211 201 215 193 204 212 211 202 210 211 204 206 198 193 193 194 196 196 201 205 208 213 203 198 214 203 215 224
203 202 172 167 171 181 190 271 300 255 239 234 224 216 203 203 195 196 203 203 188 205 198 204 203 199 194 198 198 185 193 204 206 210 218 224 225 218 221 214 195 204 234
188 160 176 183 186 209 296 266 231 236 227 212 211 204 199 197 201 195 193 198 199 194 208 195 193 193 192 188 208 199 203 216 215 202 215 209 205 210 223 228 228 234 219
191 240 215 190 273 255 250 238 222 220 210 203 192 194 197 206 199 194 202 195 183 190 194 199 194 203 199 202 200 205 199 206 218 209 204 214 225 251 242 240 235 227 224
192 192 274 261 240 229 222 219 210 203 200 207 202 194 195 192 191 190 190 189 191 187 194 210 224 201 231 205 211 222 230 233 229 223 220 217 240 239 269 262 251 255 255
271 239 235 221 220 220 210 198 207 205 197 179 191 179 190 191 186 198 184 192 195 205 200 191 200 203 203 199 199 202 247 253 256 205 237 228 218 231 251 254 252 273 229
224 211 216 137 133 201 199 198 194 195 190 198 190 199 201 207 211 213 211 182 193 215 214 214 191 196 183 192 191 210 231 221 210 230 224 249 257 254 248 241 263 274 274
208 135 195 204 195 197 192 189 181 191 199 183 197 195 197 179 190 192 189 211 194 193 191 184 196 223 194 230 239 242 235 226 241 242 230 250 263 246 252 260 265 252 251
199 206 186 192 177 176 190 200 203 184 204 197 181 186 192 200 210 202 194 194 183 183 192 216 234 238 191 240 229 250 224 233 239 276 276 271 293 305 323 316 312 334 320
179 179 189 217 211 204 203 202 181 182 178 180 208 204 197 193 193 181 213 216 231 244 228 240 216 232 219 243 263 278 284 288 301 356 357 336 364 304 362 368 354 353 339
210 199 177 187 172 200 173 179 186 187 188 183 188 214 194 192 212 228 185 224 189 233 245 222 232 254 271 302 296 285 340 315 330 322 336 327 355 318 374 352 350 366 345
178 177 197 201 203 189 162 215 209 193 206 195 220 214 223 189 219 222 245 236 251 232 174 191 223 202 284 308 332 364 297 328 333 314 349 360 334 337 321 340 346 355 371
200 202 181 178 179 210 219 215 191 228 215 224 214 212 234 195 207 218 179 240 250 151 264 282 289 285 339 291 297 295 334 326 328 324 316 338 324 324 327 319 350 360 333
197 199 199 211 205 208 151 222 219 179 221 209 230 228 223 243 190 199 236 200 268 202 272 308 292 272 353 292 313 318 335 323 305 322 308 343 331 335 307 375 356 340 338
198 208 208 200 213 203 213 204 225 228 181 227 215 189 221 200 238 256 253 232 271 326 327 328 344 322 304 317 340 312 309 328 316 329 317 341 354 385 338 310 285 335 294
208 225 172 228 236 238 241 244 238 243 241 244 235 240 252 244 227 271 251 263 281 337 326 375 349 287 310 329 330 322 329 318 318 318 317 301 308 373 356 343 344 328 307

GFSMW_2pvu_pres_141.txt.gz
Presure
165 155 152 168 177 166 159 153 133 140 140 128 129 133 205 146 152 148 140 143 219 224 201 196 206 239 302 188 268 287 274 263 256 244 248 240 240 235 236 236 233 230 246
150 156 149 146 142 136 146 138 195 133 149 138 142 160 201 195 157 189 161 218 205 203 234 215 290 195 208 272 270 254 253 240 230 236 225 220 215 218 222 220 215 219 224
140 141 166 162 149 137 164 169 190 188 137 201 204 199 200 171 153 204 204 197 207 196 231 299 182 276 266 256 228 238 224 241 225 221 217 221 219 211 205 220 215 218 210
128 129 137 126 132 132 132 131 183 151 208 205 140 167 187 180 183 197 199 199 209 229 288 179 172 246 237 232 232 237 220 213 222 212 203 217 223 216 209 203 196 198 201
197 196 198 197 195 189 182 209 195 203 198 196 185 173 189 182 185 191 193 194 225 264 173 194 241 229 242 209 219 222 216 206 204 206 220 208 202 215 210 214 205 204 210
195 196 192 186 190 191 203 201 203 195 176 185 176 183 183 190 181 190 192 216 251 189 242 232 217 230 223 215 207 205 201 208 214 214 215 211 215 205 206 204 202 201 200
193 195 203 199 205 204 202 198 186 188 172 175 182 183 177 182 216 233 219 178 221 163 224 214 222 222 201 197 206 207 203 206 197 203 206 196 201 202 199 203 208 190 204
203 209 203 203 204 204 187 190 191 188 169 178 188 178 183 200 223 218 204 246 244 234 222 211 218 196 206 205 201 210 200 195 194 196 199 202 213 190 203 204 203 215 224
204 199 196 190 174 184 181 180 185 172 190 206 190 201 196 260 219 256 175 246 229 225 203 216 195 205 202 204 173 196 199 197 191 192 199 191 202 204 219 215 209 200 195
191 181 179 183 181 184 181 188 178 185 201 193 194 217 249 218 178 192 239 223 224 207 217 192 208 190 206 198 193 196 192 195 194 198 200 214 213 212 191 195 189 195 201
184 183 184 187 179 184 192 190 196 178 200 207 255 196 213 249 241 228 225 216 209 210 203 209 205 206 192 195 193 195 197 205 211 207 207 200 193 194 206 216 220 215 205
194 181 179 183 190 200 160 193 199 203 214 259 218 241 244 238 220 224 207 210 210 208 206 196 193 189 194 193 197 203 211 205 191 193 198 194 213 204 196 174 229 213 231
182 181 193 187 153 194 200 212 216 250 217 215 217 231 225 213 203 206 213 211 201 201 200 197 189 191 190 217 199 204 186 193 199 194 197 213 222 217 230 199 196 212 242
190 189 165 192 199 208 217 205 248 217 161 237 216 216 210 222 191 189 201 197 190 195 200 200 196 194 196 203 196 192 181 194 201 212 222 209 221 250 212 205 245 232 249
140 193 199 205 209 211 239 224 217 170 220 214 217 209 206 189 198 186 181 188 176 195 204 195 201 188 182 192 213 221 219 229 210 241 228 216 218 200 234 227 235 292 311
199 203 208 214 230 232 209 188 188 216 204 203 204 197 201 180 190 196 210 200 189 187 182 189 182 192 193 193 191 213 211 199 236 230 243 249 203 253 223 253 225 341 316
176 217 173 236 207 181 218 214 207 210 195 193 195 198 192 200 173 176 196 192 201 194 193 180 187 203 203 200 203 201 211 200 229 245 244 258 230 222 233 264 288 340 299
250 228 200 186 220 213 209 205 202 193 181 176 190 194 189 179 182 189 196 211 217 215 221 225 218 197 201 210 246 182 241 246 214 222 254 224 231 237 269 285 278 343 281
192 217 212 213 211 201 196 194 190 176 187 192 177 181 184 205 212 195 187 205 205 192 186 218 224 230 231 251 248 249 247 233 248 236 256 254 235 273 284 287 365 336 313
211 210 200 196 196 190 188 186 189 194 181 181 205 211 194 194 207 205 219 223 194 196 180 207 237 250 239 196 254 262 207 230 249 249 263 260 273 273 339 354 363 327 319
207 198 192 185 207 206 194 192 182 179 211 201 193 191 183 213 214 174 194 186 220 223 236 213 237 240 250 228 228 272 271 272 274 278 280 281 293 319 338 357 353 328 324
189 201 189 195 191 197 210 181 193 200 201 193 199 171 189 202 192 196 213 201 216 231 226 226 233 242 236 236 251 239 283 272 285 295 283 301 287 374 356 349 340 325 321
185 187 191 200 196 175 189 188 190 201 174 173 214 214 214 222 226 224 203 219 224 239 246 241 245 257 258 262 269 281 280 286 281 297 294 333 329 334 346 343 334 322 320
208 188 184 193 197 205 202 201 168 174 205 214 217 211 178 211 214 232 227 230 244 242 245 238 259 238 245 299 294 293 292 298 306 302 304 311 317 357 333 337 324 318 309
181 188 194 197 198 199 172 201 177 211 222 203 214 213 218 223 223 237 228 267 265 263 247 229 246 270 304 295 293 295 304 307 318 325 327 303 343 377 331 335 320 322 308
197 189 161 176 199 207 187 193 207 224 222 211 213 220 222 237 247 240 244 269 237 228 248 266 304 304 295 300 303 308 309 331 330 310 278 307 331 353 329 332 322 308 302

GFSMW_2pvu_pres_144.txt.gz
Presure
172 172 175 175 153 166 170 155 168 140 177 139 135 141 192 198 141 209 144 150 207 134 212 193 209 197 207 303 312 184 188 251 246 237 245 238 229 228 225 227 217 215 208
153 174 175 167 172 175 170 131 133 138 180 181 184 143 139 135 137 168 156 206 199 200 181 205 199 231 303 283 173 251 241 249 244 219 226 222 216 212 214 211 225 219 220
172 138 151 131 130 132 147 133 136 149 153 134 133 135 163 195 203 202 199 195 199 202 212 194 216 266 253 203 228 234 230 220 227 217 218 211 216 224 220 217 202 216 214
131 131 127 127 126 125 125 127 131 150 177 181 195 189 196 196 203 200 193 197 190 194 190 205 249 165 194 227 237 235 228 214 216 207 218 223 208 208 215 213 214 213 206
144 195 192 184 186 184 179 180 189 194 193 182 192 197 204 200 184 187 185 175 198 188 201 226 263 196 228 224 225 225 207 211 215 212 209 215 204 197 200 199 191 195 200
194 198 201 199 194 193 197 193 194 188 186 195 202 203 201 190 195 192 172 197 194 205 227 271 254 231 225 219 219 218 209 218 210 206 195 196 201 201 203 200 208 205 210
194 191 197 197 193 187 190 191 188 192 193 202 200 192 180 183 191 180 191 188 201 228 273 255 236 222 224 209 218 196 209 209 207 201 199 196 198 196 201 203 207 216 221
201 192 193 197 198 196 193 193 194 197 199 192 177 179 184 176 195 187 221 241 234 275 258 235 231 223 210 215 196 213 198 207 200 195 198 200 201 205 215 213 202 194 191
205 200 207 208 206 205 203 201 198 193 183 182 166 188 184 203 197 213 238 212 270 257 238 228 221 207 209 212 215 209 200 195 195 194 192 202 211 205 190 199 199 196 192
190 189 193 202 199 201 200 188 180 178 179 189 183 147 203 209 218 235 206 275 244 231 213 213 212 213 211 199 199 199 201 197 204 192 205 212 205 188 188 193 196 204 218
190 186 193 194 187 185 184 184 169 184 182 139 196 211 217 253 219 173 226 218 189 226 207 203 199 200 192 193 200 202 208 198 196 201 198 191 200 204 220 227 227 232 230
185 191 194 187 186 191 190 189 173 179 181 206 202 225 245 207 197 222 179 215 205 207 202 183 182 185 197 189 183 182 194 194 190 198 220 194 224 206 212 200 205 214 207
136 183 185 192 190 183 181 140 180 178 197 201 222 235 213 234 218 179 213 200 200 193 190 184 198 194 198 197 195 194 192 194 189 213 204 204 208 209 234 233 240 239 218
195 178 191 188 187 176 192 192 190 189 209 237 227 211 205 214 210 202 199 196 196 187 197 198 177 181 188 184 191 204 222 218 225 231 219 219 217 233 237 224 233 253 245
192 188 191 189 192 142 183 189 192 213 245 215 226 212 187 211 203 192 193 187 193 194 192 181 180 203 214 215 187 211 219 204 224 229 228 233 236 240 252 228 255 252 251
190 137 195 146 191 196 181 200 225 226 238 202 213 211 200 204 199 190 183 193 188 177 199 219 213 198 199 220 225 173 207 207 206 215 194 236 240 236 234 222 213 208 271
199 192 196 195 169 198 217 239 215 216 211 209 198 199 196 195 194 216 192 182 203 215 193 194 194 181 195 223 212 208 208 222 226 234 218 236 240 236 237 237 223 287 278
199 200 208 221 215 235 216 224 209 214 203 198 201 199 193 203 187 171 213 203 195 192 187 179 211 198 202 198 190 205 205 219 237 240 236 235 242 238 244 198 245 291 277
227 224 225 236 215 220 204 211 200 199 195 193 197 189 178 200 219 202 192 205 214 210 184 188 206 208 206 229 235 217 225 246 250 240 243 245 248 258 248 281 286 293 286
235 231 215 219 197 208 201 201 199 197 206 183 196 201 201 199 189 188 188 195 173 181 211 201 201 203 200 204 237 232 233 252 259 259 248 241 239 284 271 288 302 293 302
220 208 200 216 198 202 187 214 218 198 182 193 197 190 210 210 190 190 202 185 177 203 209 203 207 209 234 232 237 235 246 256 269 235 233 246 289 303 291 272 287 299 311
216 201 201 196 191 201 223 188 187 195 199 179 188 186 189 188 191 186 169 185 229 207 232 227 222 232 234 236 239 244 243 278 261 294 285 286 301 298 301 292 296 308 317
191 198 190 189 196 191 192 208 176 190 201 203 204 200 181 204 211 182 209 226 230 233 228 233 239 236 229 234 241 273 312 316 315 305 307 297 301 309 302 314 312 325 296
189 186 191 192 206 208 193 194 192 197 185 194 196 173 191 205 196 208 232 224 225 236 233 232 235 267 273 255 278 318 313 311 312 310 311 318 300 287 313 300 324 341 305
200 201 206 186 201 184 183 207 200 191 178 178 181 198 211 206 191 229 224 235 225 237 245 258 244 243 309 329 324 309 299 313 303 286 287 291 286 286 292 325 305 298 321
174 187 199 199 198 193 194 180 171 200 207 187 199 193 215 229 236 236 242 239 255 257 239 291 307 301 317 309 311 302 285 289 280 298 298 302 307 316 311 324 323 336 331

GFSMW_2pvu_pres_147.txt.gz
Presure
141 149 153 152 151 165 173 169 171 170 173 175 170 135 176 141 181 144 134 135 139 205 213 213 204 191 208 197 212 266 251 197 253 237 227 230 233 211 221 217 234 220 227
153 147 175 154 159 169 168 171 174 163 130 137 130 177 142 135 133 145 199 189 205 207 214 203 209 197 193 227 212 249 196 247 223 232 236 204 223 218 223 212 214 217 217
184 177 179 168 177 174 176 134 132 130 134 131 160 130 154 176 191 198 189 199 204 209 191 193 193 192 226 221 253 181 206 224 231 224 205 226 224 220 215 220 204 202 203
195 188 129 129 126 127 130 129 127 180 179 169 181 178 187 197 193 192 196 205 195 182 189 194 188 199 232 261 244 236 235 229 233 225 218 219 215 209 202 199 209 212 205
132 197 200 204 194 163 135 132 189 184 186 195 195 195 193 194 191 198 199 203 180 195 188 190 193 199 235 162 250 235 230 211 222 199 217 203 211 206 201 183 201 199 207
198 186 184 182 182 185 182 194 199 200 199 196 194 190 192 192 196 199 202 186 189 181 189 230 238 239 265 215 236 224 211 212 217 214 207 204 196 200 199 193 199 204 214
200 178 185 202 199 200 199 194 185 188 187 190 192 195 195 197 201 196 191 186 186 189 216 238 267 267 249 225 220 213 212 212 201 197 200 205 210 208 201 198 204 202 199
197 197 193 191 188 209 207 201 193 192 193 197 197 195 196 199 186 185 174 187 184 239 307 280 219 226 216 206 206 206 199 199 190 187 193 192 198 201 204 201 200 198 204
185 184 188 190 187 205 203 199 196 191 196 199 198 194 194 181 177 185 183 195 230 250 230 224 225 225 205 206 199 195 188 190 205 206 206 201 196 202 189 212 203 212 212
184 185 188 189 196 199 194 186 182 189 193 188 188 183 173 180 190 182 195 244 224 225 190 216 215 202 202 203 199 191 204 196 186 191 193 203 206 204 198 207 204 222 229
179 185 182 183 184 190 191 187 181 189 189 184 185 167 191 166 184 194 221 239 223 214 210 212 204 203 204 202 205 200 193 188 194 207 211 208 195 220 214 187 221 229 233
186 192 184 181 179 183 184 187 190 191 190 188 189 179 155 190 198 223 237 222 216 210 211 206 198 194 193 192 192 187 197 199 211 205 192 207 207 201 214 207 194 222 229
189 184 182 182 178 181 181 185 182 184 193 187 171 188 193 200 204 221 219 220 211 193 205 202 197 206 195 196 185 201 216 207 185 195 218 225 220 186 203 211 213 209 224
186 135 186 182 178 181 187 169 184 193 149 152 192 198 196 193 214 217 208 219 200 203 201 204 202 199 188 188 214 198 191 178 207 198 209 198 213 214 212 214 217 213 232
180 176 179 180 177 152 178 193 147 171 193 188 196 182 231 220 212 202 203 203 204 201 197 197 178 206 199 193 187 205 220 216 195 185 223 222 214 229 230 234 218 225 214
179 182 168 184 157 191 194 162 192 188 171 196 194 233 221 209 205 204 203 199 193 197 181 184 204 192 191 190 195 182 194 170 199 195 191 211 227 230 232 234 234 238 247
189 178 159 186 178 190 196 189 175 203 216 242 230 222 206 220 196 204 188 199 185 184 206 208 198 190 184 202 201 174 226 210 202 212 199 210 223 231 232 237 237 185 253
176 175 172 159 195 178 187 204 202 229 235 231 208 202 212 200 202 200 203 181 187 192 182 193 186 187 194 179 183 187 189 206 225 221 217 222 222 233 238 256 242 251 247
160 162 205 161 203 205 197 236 224 211 222 201 203 211 202 192 199 188 205 194 190 211 185 189 190 180 184 210 199 211 222 225 214 218 232 233 245 243 246 279 277 267 307
203 184 204 203 202 241 233 218 208 199 209 211 203 191 198 186 187 190 179 221 209 183 187 205 212 212 199 197 220 229 230 229 232 230 247 254 242 262 273 255 318 314 309
212 220 246 237 223 214 208 202 208 206 196 190 204 193 190 182 200 199 179 194 211 199 189 190 202 212 224 217 235 237 234 239 242 255 259 241 239 293 325 316 303 288 292
240 226 218 217 207 204 196 190 200 209 185 186 192 194 199 199 179 194 212 209 195 198 191 207 211 186 230 237 239 233 238 258 283 287 238 291 315 277 308 304 296 302 298
219 212 191 210 203 175 200 189 193 189 189 198 184 196 182 184 208 194 204 187 202 219 229 200 232 234 231 231 250 251 271 247 243 313 320 301 300 299 292 290 289 296 299
195 197 195 187 189 183 194 175 170 196 188 185 192 191 203 167 170 211 213 226 227 225 239 243 225 232 252 239 268 245 234 312 291 285 301 301 303 302 299 282 279 287 293
188 184 181 180 179 172 177 182 181 198 172 191 196 191 165 203 199 220 206 216 224 227 236 235 247 254 242 242 241 310 285 303 305 316 313 308 301 301 313 319 320 318 321
185 184 174 183 190 188 200 180 193 190 212 221 185 219 181 215 230 200 238 184 238 242 252 251 254 245 250 302 308 317 322 333 316 320 341 489 547 536 537 532 520 506 488

GFSMW_2pvu_pres_153.txt.gz
Presure
184 63 134 90 89 87 87 90 171 164 160 145 146 152 171 140 140 179 180 173 134 131 135 191 193 206 202 216 213 186 202 202 206 255 236 251 152 229 218 224 209 224 210
143 177 178 177 178 184 167 150 153 149 158 142 153 140 141 151 174 176 180 160 127 190 181 190 199 197 208 210 194 201 191 205 257 241 263 251 244 223 216 221 218 205 207
221 205 144 191 168 183 185 183 182 147 183 140 146 161 173 173 178 138 129 141 192 180 193 198 200 204 210 189 199 190 207 214 271 272 250 233 229 223 224 211 205 199 196
207 211 211 203 195 184 187 185 184 185 151 190 183 183 179 141 124 185 191 191 190 196 198 203 200 208 199 195 186 198 194 248 253 273 251 228 213 218 213 203 193 208 202
190 191 187 180 205 175 173 135 138 140 188 174 183 191 183 128 189 188 188 195 200 201 203 201 196 182 185 197 193 207 205 249 237 245 231 204 201 206 203 207 201 198 192
199 200 182 181 173 201 212 216 199 213 205 197 198 149 184 190 195 189 201 184 205 200 195 185 195 202 196 184 199 201 228 224 227 221 209 201 202 198 191 199 197 184 196
197 195 198 199 190 181 184 186 201 180 168 205 196 201 189 191 199 192 185 205 200 191 184 192 189 194 190 196 200 200 237 219 222 198 202 209 209 201 204 206 219 211 192
190 188 191 197 197 204 201 194 200 198 198 193 198 192 199 185 186 188 205 192 195 186 192 187 170 191 199 195 191 202 226 206 224 203 209 217 211 182 201 212 190 184 210
191 191 153 189 196 196 195 196 192 189 192 191 191 197 181 179 188 184 184 183 185 186 185 170 189 203 187 199 201 212 220 208 211 212 215 205 181 198 207 202 180 193 187
188 188 184 184 183 182 192 195 192 195 190 199 193 180 178 188 183 183 181 184 174 185 160 160 197 188 201 203 194 214 208 220 206 202 202 203 195 174 197 188 193 181 187
187 186 188 187 185 185 194 193 192 194 193 186 173 175 185 185 167 124 183 156 185 156 185 195 187 203 203 195 233 224 201 225 200 207 191 201 206 188 190 191 195 188 196
189 195 185 183 187 187 189 184 184 188 180 172 180 183 188 186 183 181 140 185 157 183 193 200 207 202 205 233 211 205 210 213 203 199 188 184 192 200 190 197 190 201 190
183 194 189 186 183 182 189 191 182 175 179 181 182 185 183 184 159 186 178 159 181 191 202 205 202 210 236 231 220 203 208 196 206 198 198 193 188 181 197 219 209 191 186
185 181 184 189 188 185 184 183 156 177 178 184 188 192 197 158 187 170 167 184 185 200 205 201 222 240 217 208 205 214 200 195 185 196 188 200 178 188 200 201 173 199 207
178 181 188 140 182 177 152 173 148 151 184 185 142 167 146 181 180 176 168 197 202 208 201 238 229 218 221 211 197 193 187 193 193 178 198 181 195 212 190 181 196 212 216
189 186 190 166 170 126 173 178 119 180 179 180 146 173 150 149 184 165 204 172 215 219 247 230 218 200 203 195 178 198 185 181 194 196 193 194 200 183 201 191 218 210 204
151 178 188 194 188 173 185 177 149 172 169 156 190 149 159 184 192 195 212 219 220 245 206 199 205 192 188 185 196 179 185 189 186 194 193 193 185 206 217 169 218 197 241
198 193 180 186 183 172 184 197 181 170 175 184 156 175 184 183 192 212 219 225 227 208 199 181 191 178 193 199 186 167 193 193 201 182 216 213 212 216 218 206 221 237 240
138 121 146 198 196 172 148 172 174 168 188 163 185 166 202 200 217 220 235 214 211 181 187 190 185 195 189 179 185 214 192 148 173 202 204 225 230 236 237 237 239 240 260
197 198 156 178 145 148 153 148 156 184 196 182 182 224 218 221 237 210 201 209 195 190 174 189 188 187 195 200 200 207 148 225 225 224 219 232 243 237 239 247 269 266 256
198 180 145 185 140 151 154 195 196 177 185 220 223 225 235 211 200 188 192 187 191 188 184 192 161 197 193 221 133 217 234 224 243 247 251 256 276 306 314 302 253 240 263
173 182 164 171 199 197 200 206 214 227 227 232 222 207 195 196 180 187 191 189 191 191 221 196 190 230 182 159 235 226 235 233 239 245 259 262 244 245 260 254 261 262 267
202 203 178 194 207 214 225 243 238 224 210 203 198 194 183 187 191 194 207 206 197 205 164 213 222 223 213 223 236 253 317 309 305 272 240 247 253 266 272 273 341 351 351
215 217 226 244 247 248 212 208 207 200 193 195 190 189 191 184 190 185 229 186 213 216 192 163 167 236 236 236 290 294 261 269 278 270 264 275 320 341 348 372 481 464 480
254 236 221 211 205 201 199 197 195 188 185 193 201 188 217 228 216 195 174 189 230 166 186 247 237 237 260 298 272 288 254 251 273 309 339 349 346 408 471 458 442 462 478
206 205 204 202 200 192 178 179 186 190 187 184 186 183 216 229 180 195 209 224 175 186 238 308 306 223 270 269 265 268 274 292 340 350 463 501 483 473 450 434 468 460 448

GFSMW_2pvu_pres_156.txt.gz
Presure
58 90 85 58 63 67 69 87 90 94 155 97 168 168 166 167 144 144 165 142 144 182 185 183 125 126 192 201 211 213 195 200 201 197 204 227 245 268 256 244 224 225 218
79 80 77 78 84 86 115 87 90 90 160 170 169 159 152 151 137 172 140 193 188 186 185 189 194 195 203 206 216 195 213 184 196 203 208 253 238 225 257 237 215 225 217
188 185 180 190 193 188 183 167 171 168 169 163 176 178 187 162 186 175 188 176 179 191 159 184 183 203 189 216 202 196 196 195 201 202 207 253 232 280 195 213 209 213 210
181 186 210 182 214 203 195 184 174 174 151 172 175 181 185 190 144 181 188 188 188 165 199 202 204 187 213 199 195 185 204 199 196 191 209 234 221 228 213 213 210 202 200
195 193 202 209 211 179 209 203 197 193 192 188 186 136 186 146 198 199 196 199 192 188 202 205 189 198 194 191 177 195 192 200 194 201 204 223 219 226 209 210 209 212 210
192 184 188 199 203 216 218 213 204 203 199 159 136 197 200 210 201 210 204 193 203 194 201 187 191 191 185 181 192 186 177 198 204 208 201 232 218 215 220 208 221 206 206
193 187 180 180 197 199 204 207 209 208 195 187 208 195 185 185 203 211 196 196 191 198 182 189 190 179 183 186 182 190 200 200 211 204 210 219 230 214 222 198 206 207 202
190 186 182 180 179 177 205 187 182 180 182 180 181 183 193 199 194 191 189 190 198 181 183 191 183 185 185 181 183 168 196 184 208 202 218 219 229 210 225 207 205 192 184
191 190 190 197 194 196 195 191 196 200 201 199 205 196 198 194 192 192 195 194 182 179 128 189 165 177 183 181 187 190 171 207 203 216 235 220 207 212 222 211 185 181 191
190 194 186 190 193 192 190 189 190 194 191 194 190 190 192 191 193 194 195 177 177 190 134 187 181 184 176 184 190 186 211 203 217 239 227 220 209 215 195 208 185 197 192
199 189 183 187 183 183 181 184 183 185 186 182 188 183 193 193 188 193 179 178 183 174 200 182 186 162 174 183 183 213 203 232 243 229 222 204 203 204 184 204 194 195 200
191 189 187 183 189 189 183 188 185 182 184 184 187 189 187 187 186 177 180 184 188 195 185 156 177 190 169 200 210 218 228 244 224 204 202 206 193 183 201 194 202 183 201
191 197 197 193 191 181 182 182 181 184 182 184 180 187 191 185 178 179 183 185 161 169 171 156 157 172 200 210 220 236 233 210 206 186 194 190 194 195 192 193 192 206 194
175 195 186 173 179 179 179 182 182 182 186 182 178 183 156 179 177 182 162 162 175 202 153 162 184 202 207 220 240 229 214 209 195 182 194 193 182 199 202 192 181 190 196
183 179 178 179 179 177 172 184 189 144 185 174 173 175 161 179 167 138 181 174 190 166 163 184 206 198 223 247 235 215 203 184 189 184 194 189 195 193 190 203 183 222 213
184 185 185 184 189 191 183 177 180 185 186 169 171 176 176 189 178 145 181 163 154 186 184 210 218 215 250 217 208 209 205 183 183 192 188 193 185 184 217 187 201 195 195
193 167 190 191 180 187 191 175 169 184 187 190 188 172 169 181 189 165 159 185 186 169 170 219 238 229 213 206 211 196 187 197 191 187 189 183 203 208 217 218 235 238 201
188 186 188 191 185 192 200 186 177 183 188 173 181 152 190 170 153 175 190 189 207 170 230 239 215 208 197 196 189 198 202 197 184 198 190 220 221 236 245 239 221 231 237
190 161 171 178 186 198 161 129 133 193 192 199 197 181 156 159 192 193 193 213 234 244 230 205 204 194 194 186 201 190 195 188 189 204 242 176 204 214 226 245 237 247 301
195 192 192 191 191 133 196 188 173 160 189 180 151 154 186 196 201 205 221 232 222 216 203 195 201 189 193 178 200 152 194 237 222 136 217 215 248 248 232 244 320 304 256
200 195 193 190 190 194 177 178 164 182 153 155 183 191 185 195 216 244 226 215 206 201 193 182 182 198 201 197 206 134 204 216 218 233 235 247 314 302 264 280 273 270 259
198 197 171 197 194 183 189 193 179 186 186 200 205 195 216 239 230 219 211 196 185 182 183 197 197 216 215 196 195 226 217 232 267 250 260 303 277 284 276 265 251 257 334
192 195 197 199 191 184 182 194 166 173 205 203 221 244 225 217 207 193 182 177 187 200 196 148 193 193 199 133 168 237 233 229 330 307 292 266 268 269 270 278 349 359 462
196 182 182 180 168 176 203 211 210 217 244 235 217 214 203 187 182 183 190 195 196 190 147 226 234 204 148 235 260 331 304 267 274 273 273 266 277 339 359 381 501 494 477
202 200 204 209 212 218 233 236 232 218 212 203 196 187 183 182 181 189 205 226 189 199 192 229 244 249 240 252 216 286 290 279 271 270 274 329 361 402 493 512 488 461 443
237 235 249 249 235 219 214 207 201 196 184 183 183 181 214 204 217 192 192 160 204 236 175 252 260 246 290 281 273 275 278 269 299 353 362 397 444 506 475 433 453 475 484